Weather History for Newburgh, NY

Change the Weather History Date:

Saturday, February 23, 2013

  Actual Average Record
Temperature  
Mean Temperature 34 °F -  
Max Temperature 37 °F 38 °F 46 °F (2014)
Min Temperature 32 °F 21 °F 32 °F (2014)
Degree Days  
Heating Degree Days 30    
Moisture  
Dew Point 33 °F    
Average Humidity 94    
Maximum Humidity 100    
Minimum Humidity 81    
Precipitation  
Precipitation 0.00 in - - ()
Sea Level Pressure  
Sea Level Pressure 30.05 in    
Wind  
Wind Speed 6 mph (East)    
Max Wind Speed 12 mph    
Max Gust Speed -    
Visibility 4 miles    
Events Rain , Snow    
Averages and records for this station are not official NWS values.
T = Trace of Precipitation, MM = Missing Value Source: NWS Daily Summary

Daily Weather History Graph

Daily Weather History Graph

Search for Another Location

Airport:

Trip Planner

Search our weather history database for the weather conditions in past years. The results will help you decide how hot, cold, wet, or windy it might be!

Date:

Astronomy

Feb. 23, 2013 Rise Set
Actual Time 6:39 AM EST 5:40 PM EST
Civil Twilight 6:11 AM EST 6:08 PM EST
Nautical Twilight 5:39 AM EST 6:40 PM EST
Astronomical Twilight 5:07 AM EST 7:12 PM EST
Moon 3:47 PM EST (2/23) 5:01 AM EST (2/23)
Length of Visible Light 11h 56m
Length of Day
11h 00m
Waxing Gibbous, 95% of the Moon is Illuminated
Feb 23
Waxing Gibbous
Feb 25
Full
Mar 4
Last Quarter
Mar 11
New
Mar 19
First Quarter

Hourly Weather History & Observations

Time (EST) Temp. Windchill Dew Point Humidity Pressure Visibility Wind Dir Wind Speed Gust Speed Precip Events Conditions
12:45 AM 33.8 °F 28.6 °F 28.4 °F 81% 30.26 in 5.0 mi Variable 5.8 mph - N/A Snow Light Snow
1:45 AM 32.0 °F 26.4 °F 28.4 °F 87% 30.25 in 5.0 mi Variable 5.8 mph - N/A Snow Light Snow
2:45 AM 32.0 °F 26.4 °F 30.2 °F 93% 30.21 in 5.0 mi Variable 5.8 mph - N/A   Overcast
3:45 AM 32.0 °F 26.4 °F 30.2 °F 93% 30.20 in 10.0 mi Variable 5.8 mph - N/A   Overcast
4:45 AM 33.8 °F 29.6 °F 30.2 °F 87% 30.18 in 10.0 mi Variable 4.6 mph - N/A   Overcast
5:45 AM 33.8 °F 29.6 °F 30.2 °F 87% 30.17 in 10.0 mi Variable 4.6 mph - N/A   Overcast
7:45 AM 33.8 °F 27.7 °F 30.2 °F 87% 30.16 in 5.0 mi Variable 6.9 mph - N/A   Overcast
8:45 AM 33.8 °F 28.6 °F 32.0 °F 93% 30.13 in 5.0 mi ESE 5.8 mph - N/A   Overcast
10:45 AM 35.6 °F 29.9 °F 33.8 °F 93% 30.08 in 1.5 mi ESE 6.9 mph - N/A   Overcast
11:45 AM 35.6 °F 28.6 °F 35.6 °F 100% 30.07 in 1.5 mi SE 9.2 mph - N/A   Overcast
12:45 PM 37.4 °F 32.1 °F 35.6 °F 93% 30.04 in 4.0 mi ESE 6.9 mph - N/A   Overcast
1:15 PM 37.4 °F 32.1 °F 35.6 °F 93% 30.03 in 2.0 mi East 6.9 mph - N/A Rain Light Rain
1:45 PM 37.4 °F 33.8 °F 37.4 °F 100% 30.02 in 1.5 mi NNE 4.6 mph - N/A Rain Light Rain
2:45 PM 37.4 °F 30.8 °F 37.4 °F 100% 30.00 in 2.0 mi ENE 9.2 mph - N/A   Light Drizzle
3:45 PM 37.4 °F 32.1 °F 37.4 °F 100% 29.99 in 2.0 mi ENE 6.9 mph - N/A   Light Drizzle
4:45 PM 37.4 °F 30.8 °F 37.4 °F 100% 29.96 in 2.0 mi East 9.2 mph - N/A   Light Drizzle
5:45 PM 37.4 °F 30.8 °F 35.6 °F 93% 29.95 in 4.0 mi ESE 9.2 mph - N/A   Light Drizzle
6:45 PM 35.6 °F 27.5 °F 35.6 °F 100% 29.93 in 3.0 mi SE 11.5 mph - N/A   Light Drizzle
8:45 PM 35.6 °F 30.7 °F 33.8 °F 93% 29.93 in 2.0 mi NE 5.8 mph - N/A   Light Drizzle
9:50 PM 35.6 °F 29.2 °F 33.8 °F 93% 29.91 in 2.0 mi ENE 8.1 mph - N/A   Light Drizzle
10:45 PM 35.6 °F 30.7 °F 33.8 °F 93% 29.87 in 2.0 mi NE 5.8 mph - N/A   Light Drizzle
11:45 PM 33.8 °F 28.6 °F 33.8 °F 100% 29.85 in 2.0 mi NNE 5.8 mph - N/A   Light Drizzle